| time (UTC) | temp C | wind direction | speed KPH | gust KPH | rain 1hr cm | rain 24hr cm | rain mn cm | humidity % | barometer mb |
| 20260506184538 | 10 | 294 | 8.0 | 16.1 | 0.00 | 0.00 | 0.00 | 50 | 1012.3 |
| 20260506183038 | 10 | 233 | 3.2 | 14.5 | 0.00 | 0.00 | 0.00 | 52 | 1012.5 |
| 20260506181543 | 10 | 249 | 4.8 | 12.9 | 0.00 | 0.00 | 0.00 | 51 | 1012.4 |
| 20260506180033 | 10 | 90 | 6.4 | 12.9 | 0.00 | 0.00 | 0.00 | 52 | 1012.5 |
| 20260506174531 | 10 | 33 | 8.0 | 16.1 | 0.00 | 0.03 | 0.00 | 52 | 1012.6 |
| 20260506173047 | 9 | 311 | 9.7 | 19.3 | 0.00 | 0.03 | 0.00 | 52 | 1013.1 |
| 20260506171535 | 9 | 246 | 9.7 | 17.7 | 0.00 | 0.03 | 0.00 | 54 | 1013.2 |
| 20260506170036 | 9 | 247 | 6.4 | 14.5 | 0.00 | 0.03 | 0.00 | 52 | 1013.0 |
| 20260506164534 | 9 | 359 | 8.0 | 12.9 | 0.00 | 0.18 | 0.00 | 57 | 1013.0 |
| 20260506163040 | 9 | 230 | 8.0 | 14.5 | 0.00 | 0.18 | 0.00 | 56 | 1012.9 |
| 20260506161537 | 9 | 245 | 9.7 | 19.3 | 0.00 | 0.18 | 0.00 | 57 | 1012.9 |
| 20260506160041 | 9 | 227 | 9.7 | 19.3 | 0.00 | 0.18 | 0.00 | 56 | 1012.7 |
| 20260506154540 | 9 | 20 | 9.7 | 17.7 | 0.00 | 0.20 | 0.00 | 56 | 1012.7 |
| 20260506153035 | 9 | 326 | 8.0 | 19.3 | 0.00 | 0.20 | 0.00 | 52 | 1012.4 |
| 20260506151544 | 9 | 295 | 6.4 | 19.3 | 0.00 | 0.20 | 0.00 | 55 | 1012.4 |
| 20260506150043 | 9 | 302 | 11.3 | 20.9 | 0.00 | 0.20 | 0.00 | 55 | 1012.4 |
| 20260506144545 | 9 | 273 | 6.4 | 22.5 | 0.00 | 0.20 | 0.00 | 59 | 1012.2 |
| 20260506143037 | 9 | 292 | 8.0 | 20.9 | 0.00 | 0.20 | 0.00 | 59 | 1012.0 |
| 20260506141536 | 9 | 297 | 4.8 | 19.3 | 0.00 | 0.20 | 0.00 | 61 | 1011.9 |
| 20260506140037 | 9 | 299 | 9.7 | 20.9 | 0.00 | 0.20 | 0.00 | 64 | 1011.5 |
| 20260506134535 | 8 | 308 | 9.7 | 17.7 | 0.00 | 0.20 | 0.00 | 62 | 1011.4 |
| 20260506133041 | 8 | 32 | 4.8 | 16.1 | 0.00 | 0.20 | 0.00 | 63 | 1011.5 |
| 20260506131552 | 8 | 335 | 3.2 | 12.9 | 0.00 | 0.20 | 0.00 | 63 | 1011.1 |
| 20260506130041 | 8 | 289 | 3.2 | 9.7 | 0.00 | 0.20 | 0.00 | 65 | 1010.9 |
| 20260506124536 | 7 | 273 | 6.4 | 9.7 | 0.00 | 0.20 | 0.00 | 67 | 1010.9 |
| 20260506123034 | 7 | 302 | 4.8 | 9.7 | 0.00 | 0.20 | 0.00 | 67 | 1010.7 |
| 20260506121535 | 6 | 272 | 1.6 | 8.0 | 0.00 | 0.20 | 0.00 | 70 | 1010.6 |
| 20260506120041 | 6 | 300 | 4.8 | 8.0 | 0.00 | 0.20 | 0.00 | 69 | 1010.2 |
| 20260506114540 | 6 | 338 | 1.6 | 4.8 | 0.00 | 0.20 | 0.00 | 69 | 1010.3 |
| 20260506113037 | 6 | 298 | 1.6 | 6.4 | 0.00 | 0.20 | 0.00 | 69 | 1010.0 |
| 20260506111537 | 6 | 0 | 1.6 | 4.8 | 0.00 | 0.20 | 0.00 | 68 | 1010.0 |
| 20260506110034 | 6 | 323 | 1.6 | 4.8 | 0.00 | 0.20 | 0.00 | 66 | 1009.7 |
| 20260506104547 | 6 | 330 | 1.6 | 3.2 | 0.00 | 0.20 | 0.00 | 66 | 1009.6 |
| 20260506103040 | 7 | 0 | 1.6 | 4.8 | 0.00 | 0.20 | 0.00 | 65 | 1009.4 |
| 20260506101540 | 7 | 322 | 1.6 | 3.2 | 0.00 | 0.20 | 0.00 | 65 | 1009.2 |
| 20260506100039 | 7 | 309 | 0.0 | 6.4 | 0.00 | 0.20 | 0.00 | 63 | 1009.3 |
| 20260506094547 | 7 | 353 | 1.6 | 4.8 | 0.00 | 0.20 | 0.00 | 63 | 1008.7 |
| 20260506093039 | 7 | 328 | 1.6 | 9.7 | 0.00 | 0.20 | 0.00 | 63 | 1008.7 |
| 20260506091541 | 7 | 316 | 0.0 | 4.8 | 0.00 | 0.20 | 0.00 | 64 | 1008.8 |
| 20260506090040 | 7 | 0 | 1.6 | 6.4 | 0.00 | 0.20 | 0.00 | 64 | 1008.7 |
| 20260506084543 | 7 | 326 | 0.0 | 3.2 | 0.00 | 0.20 | 0.00 | 64 | 1008.5 |
| 20260506083038 | 7 | 0 | 0.0 | 3.2 | 0.00 | 0.20 | 0.00 | 65 | 1008.6 |
| 20260506081537 | 7 | 323 | 1.6 | 6.4 | 0.00 | 0.20 | 0.00 | 64 | 1008.5 |
| 20260506073041 | 8 | 293 | 0.0 | 8.0 | 0.00 | 0.20 | 0.00 | 64 | 1008.7 |
| 20260506071542 | 8 | 275 | 3.2 | 6.4 | 0.00 | 0.20 | 0.00 | 62 | 1008.6 |
| 20260506061534 | 8 | 311 | 3.2 | 12.9 | 0.00 | 0.20 | 0.00 | 63 | 1008.7 |
| 20260506044535 | 8 | 271 | 3.2 | 4.8 | 0.00 | 0.46 | 0.00 | 62 | 1008.8 |
| 20260506043034 | 8 | 251 | 1.6 | 6.4 | 0.00 | 0.46 | 0.00 | 61 | 1008.5 |
| 20260506041537 | 8 | 255 | 0.0 | 4.8 | 0.00 | 0.46 | 0.00 | 62 | 1008.5 |
| 20260506040038 | 8 | 241 | 1.6 | 8.0 | 0.00 | 0.46 | 0.00 | 64 | 1008.5 |
| 20260506034535 | 8 | 264 | 0.0 | 1.6 | 0.00 | 0.46 | 0.46 | 63 | 1008.6 |
| 20260506033036 | 8 | 0 | 0.0 | 4.8 | 0.00 | 0.46 | 0.46 | 60 | 1008.5 |
| 20260506031533 | 8 | 248 | 1.6 | 3.2 | 0.00 | 0.46 | 0.46 | 59 | 1008.7 |
| 20260506030039 | 9 | 249 | 1.6 | 8.0 | 0.00 | 0.46 | 0.46 | 58 | 1008.8 |
| 20260506024546 | 9 | 236 | 0.0 | 3.2 | 0.00 | 0.46 | 0.46 | 57 | 1008.6 |
| 20260506023036 | 9 | 243 | 0.0 | 6.4 | 0.00 | 0.46 | 0.46 | 57 | 1008.8 |
| 20260506021533 | 9 | 264 | 1.6 | 4.8 | 0.00 | 0.46 | 0.46 | 57 | 1008.6 |
| 20260506020034 | 9 | 0 | 0.0 | 4.8 | 0.00 | 0.46 | 0.46 | 56 | 1008.6 |
| 20260506014543 | 9 | 235 | 1.6 | 6.4 | 0.00 | 0.46 | 0.46 | 54 | 1008.5 |
| 20260506013037 | 10 | 276 | 3.2 | 9.7 | 0.00 | 0.46 | 0.46 | 53 | 1008.2 |
| 20260506011540 | 10 | 305 | 3.2 | 6.4 | 0.00 | 0.46 | 0.46 | 53 | 1007.9 |
| 20260506010036 | 10 | 253 | 3.2 | 11.3 | 0.00 | 0.46 | 0.46 | 52 | 1007.9 |
| 20260506004533 | 10 | 245 | 3.2 | 16.1 | 0.00 | 0.46 | 0.46 | 52 | 1008.1 |
| 20260506003037 | 10 | 325 | 4.8 | 19.3 | 0.00 | 0.46 | 0.46 | 52 | 1008.0 |
| 20260506001538 | 10 | 273 | 4.8 | 11.3 | 0.00 | 0.46 | 0.46 | 52 | 1008.0 |
| 20260506000037 | 11 | 268 | 4.8 | 14.5 | 0.00 | 0.46 | 0.46 | 51 | 1007.8 |
| 20260505234541 | 11 | 255 | 4.8 | 12.9 | 0.00 | 0.51 | 0.46 | 52 | 1007.6 |
| 20260505233038 | 11 | 283 | 4.8 | 12.9 | 0.00 | 0.51 | 0.46 | 53 | 1007.3 |
| 20260505231549 | 11 | 274 | 4.8 | 11.3 | 0.00 | 0.51 | 0.46 | 54 | 1007.2 |
| 20260505230048 | 11 | 267 | 4.8 | 14.5 | 0.00 | 0.51 | 0.46 | 54 | 1007.3 |
| 20260505224541 | 11 | 285 | 4.8 | 12.9 | 0.00 | 0.51 | 0.46 | 55 | 1007.4 |
| 20260505223040 | 11 | 264 | 4.8 | 19.3 | 0.00 | 0.51 | 0.46 | 55 | 1007.4 |
| 20260505221540 | 11 | 290 | 6.4 | 14.5 | 0.00 | 0.51 | 0.46 | 55 | 1007.5 |
| 20260505220036 | 11 | 224 | 4.8 | 16.1 | 0.00 | 0.51 | 0.46 | 56 | 1007.4 |
| 20260505214534 | 11 | 309 | 9.7 | 20.9 | 0.00 | 0.51 | 0.46 | 53 | 1007.4 |
| 20260505213032 | 11 | 302 | 8.0 | 14.5 | 0.00 | 0.51 | 0.46 | 60 | 1007.5 |
| 20260505211534 | 11 | 278 | 6.4 | 19.3 | 0.00 | 0.51 | 0.46 | 63 | 1007.3 |
| 20260505210038 | 11 | 280 | 4.8 | 9.7 | 0.00 | 0.51 | 0.46 | 71 | 1007.5 |
| 20260505204540 | 11 | 246 | 3.2 | 12.9 | 0.00 | 0.51 | 0.46 | 74 | 1007.5 |
| 20260505203035 | 11 | 248 | 3.2 | 12.9 | 0.00 | 0.51 | 0.46 | 75 | 1007.7 |
| 20260505201534 | 11 | 285 | 1.6 | 17.7 | 0.00 | 0.51 | 0.46 | 77 | 1007.5 |
| 20260505200035 | 11 | 279 | 3.2 | 11.3 | 0.00 | 0.51 | 0.46 | 77 | 1007.5 |
| 20260505194532 | 11 | 224 | 3.2 | 14.5 | 0.00 | 0.51 | 0.46 | 77 | 1007.5 |
| 20260505193032 | 10 | 274 | 3.2 | 11.3 | 0.00 | 0.51 | 0.46 | 78 | 1007.7 |
| 20260505191534 | 10 | 257 | 4.8 | 17.7 | 0.00 | 0.51 | 0.46 | 78 | 1008.0 |
| 20260505190036 | 10 | 243 | 6.4 | 12.9 | 0.00 | 0.51 | 0.46 | 79 | 1007.9 |